Mar del Plata, Argentina

8:43 PM America en Julio 15, 2018 (GMT +0000)
Mar Del Plata International

Tiempo Historia de SAZM - Mayo, 2018

Change the Weather History Date:

Miércoles, Mayo 16, 2018

  Actual Average Record
Temperature  
Temperatura media 50 ° F -  
Temperatura máxima 58 ° F 59 ° F 77 ° F (2015)
Temperatura mínima 42 ° F 41 ° F 32 ° F (2005)
Degree Days  
Grados día de calefacción 14    
Moisture  
Punto de rocío 42 ° F    
Average Humidity 72    
Maximum Humidity 93    
Minimum Humidity 52    
Precipitación  
Precipitación 0.00 pul 0.08 pul - ()
Presión al nivel del mar  
Presión al nivel del mar 30.11 pul    
Viento  
Velocidad del viento 6 mph ()    
Velocidad máxima del viento 12 mph    
Max Gust Speed -    
Visibilidad 6.1 Millas    
Eventos      
Averages and records for this station are not official NWS values.
T = Trace of Precipitation, MM = Missing Value Source: Averaged Metar Reports

Daily Weather History Graph

Daily Weather History Graph

Search for Another Location

Airport or City:

Astronomía

May. 16, 2018 Salida Puesta
Hora real 7:44 AM -03 5:48 PM -03
Crepúsculo civil 7:16 AM -03 6:16 PM -03
Crepúsculo náutico 6:44 AM -03 6:48 PM -03
Crepúsculo astronómico 6:13 AM -03 7:19 PM -03
Luna 8:44 AM -03 (5/16) 7:09 PM -03 (5/16)
Horas de luz 10h 59m
Horas de luz
10h 03m
Luna nueva, 2% of the Moon is Illuminated
May 16
Luna nueva
May 22
Cuarto creciente
May 29
Luna llena
Jun 6
Cuarto menguante
Jun 13
Nueva

Hourly Weather History & Observations

Hora (-03) Temp. Vientos helados Punto de rocío Humedad Presión Visibilidad Wind Dir Velocidad del viento Velocidad de ráfagas Precip Eventos Condiciones
12:00 AM 50 ° F - 47 ° F 86% 30.09 pul 6 mi OSO 6.9 mph - -   Parcialmente nublado
12:00 AM 50.0 ° F - 46.4 ° F 87% 30.06 pul 6.2 mi OSO 6.9 mph - N/A   Nubes dispersas
1:00 AM 51.8 ° F - 46.4 ° F 82% 29.80 pul 6.2 mi SO 4.6 mph - N/A   Nubes dispersas
2:00 AM 51.8 ° F - 44.6 ° F 76% 30.09 pul 6.2 mi SSO 9.2 mph - N/A   Muy nublado
3:00 AM 51 ° F - 42 ° F 61% 30.12 pul 6 mi SSO 5.8 mph - -   Muy nublado
3:00 AM 51.8 ° F - 41.0 ° F 67% 30.09 pul 6.2 mi SSO 5.8 mph - N/A   Muy nublado
4:00 AM 50.0 ° F - 42.8 ° F 76% 30.09 pul 6.2 mi OSO 4.6 mph - N/A   Muy nublado
5:00 AM 50.0 ° F - 39.2 ° F 66% 30.12 pul 6.2 mi SO 5.8 mph - N/A   Muy nublado
6:00 AM 50 ° F - 39 ° F 56% 30.14 pul 6 mi SO 4.6 mph - -   Parcialmente nublado
6:00 AM 50.0 ° F - 39.2 ° F 66% 30.12 pul 6.2 mi SO 4.6 mph - N/A   Nubes dispersas
7:00 AM 50.0 ° F - 37.4 ° F 62% 30.12 pul 6.2 mi SSO 4.6 mph - N/A   Muy nublado
8:00 AM 46.4 ° F 44.3 ° F 39.2 ° F 76% 30.15 pul 6.2 mi Oeste 4.6 mph - N/A   Muy nublado
9:00 AM 46 ° F - 42 ° F 80% 30.16 pul 6 mi ONO 5.8 mph - -   Parcialmente nublado
9:00 AM 46.4 ° F 43.5 ° F 42.8 ° F 87% 30.15 pul 6.2 mi Oeste 5.8 mph - N/A   Nubes dispersas
10:00 AM 50.0 ° F - 42.8 ° F 76% 30.15 pul 6.2 mi OSO 6.9 mph - N/A   Nubes dispersas
11:00 AM 53.6 ° F - 44.6 ° F 72% 30.15 pul 6.2 mi SO 9.2 mph - N/A   Muy nublado
12:00 PM 56 ° F - 44 ° F 54% 30.15 pul 6 mi SO 9.2 mph - -   Muy nublado
12:00 PM 57.2 ° F - 44.6 ° F 63% 30.15 pul 6.2 mi SO 9.2 mph - N/A   Nubes dispersas
1:00 PM 55.4 ° F - 44.6 ° F 67% 30.12 pul 6.2 mi SSO 8.1 mph - N/A   Nubes dispersas
2:00 PM 55.4 ° F - 41.0 ° F 58% 30.12 pul 6.2 mi SO 11.5 mph - N/A   Muy nublado
3:00 PM 56 ° F - 43 ° F 52% 30.14 pul 6 mi SSO 8.1 mph - -   Muy nublado
3:00 PM 57.2 ° F - 42.8 ° F 59% 30.12 pul 6.2 mi SSO 8.1 mph - N/A   Muy nublado
4:00 PM 57.2 ° F - 41.0 ° F 55% 30.12 pul 6.2 mi SSO 10.4 mph - N/A   Muy nublado
5:00 PM 55.4 ° F - 42.8 ° F 63% 30.12 pul 6.2 mi SO 5.8 mph - N/A   Muy nublado
6:00 PM 54 ° F - 44 ° F 58% 30.15 pul 6 mi OSO 3.5 mph - -   Parcialmente nublado
6:00 PM 53.6 ° F - 42.8 ° F 67% 30.12 pul 6.2 mi OSO 3.5 mph - N/A   Muy nublado
7:00 PM 50.0 ° F - 42.8 ° F 76% 30.12 pul - Oeste 3.5 mph - N/A   Despejado
8:00 PM 46.4 ° F - 42.8 ° F 87% 30.12 pul - Oeste 2.3 mph - N/A   Despejado
9:00 PM 44 ° F - 42 ° F 89% 30.15 pul 6 mi SSO 4.6 mph - -   Despejado
9:00 PM 44.6 ° F 43.1 ° F 41.0 ° F 87% 30.12 pul - Oeste 3.5 mph - N/A   Despejado
10:00 PM 44.6 ° F 41.4 ° F 41.0 ° F 87% 30.12 pul - ONO 5.8 mph - N/A   Despejado
11:00 PM 42.8 ° F 41.1 ° F 41.0 ° F 93% 30.12 pul - Oeste 3.5 mph - N/A   Despejado